Year,Month,Day,Hour,Minute,Value (Times are PST for barometer in hPa)
2021,05,12,00,00,945.43
2021,05,12,00,01,945.47
2021,05,12,00,02,945.16
2021,05,12,00,03,945.05
2021,05,12,00,04,944.61
2021,05,12,00,05,944.80
2021,05,12,00,06,944.93
2021,05,12,00,07,944.88
2021,05,12,00,08,944.78
2021,05,12,00,09,944.59
2021,05,12,00,10,944.81
2021,05,12,00,11,944.60
2021,05,12,00,12,944.42
2021,05,12,00,13,944.25
2021,05,12,00,14,943.86
2021,05,12,00,15,943.85
2021,05,12,00,16,944.01
2021,05,12,00,17,944.64
2021,05,12,00,18,944.58
2021,05,12,00,19,944.11
2021,05,12,00,20,944.06
2021,05,12,00,21,944.09
2021,05,12,00,22,944.06
2021,05,12,00,23,943.74
2021,05,12,00,24,943.88
2021,05,12,00,25,943.61
2021,05,12,00,26,943.32
2021,05,12,00,27,943.09
2021,05,12,00,28,943.01
2021,05,12,00,29,942.50
2021,05,12,00,30,942.24
2021,05,12,00,31,942.42
2021,05,12,00,32,942.77
2021,05,12,00,33,942.53
2021,05,12,00,34,942.19
2021,05,12,00,35,941.90
2021,05,12,00,36,942.05
2021,05,12,00,37,942.35
2021,05,12,00,38,942.26
2021,05,12,00,39,942.16
2021,05,12,00,40,941.81
2021,05,12,00,41,941.82
2021,05,12,00,42,941.82
2021,05,12,00,43,942.77
2021,05,12,00,44,942.84
2021,05,12,00,45,942.23
2021,05,12,00,46,941.89
2021,05,12,00,47,942.50
2021,05,12,00,48,942.67
2021,05,12,00,49,942.57
2021,05,12,00,50,942.09
2021,05,12,00,51,942.40
2021,05,12,00,52,941.89
2021,05,12,00,53,941.62
2021,05,12,00,54,941.69
2021,05,12,00,55,941.50
2021,05,12,00,56,941.92
2021,05,12,00,57,941.92
2021,05,12,00,58,940.95
2021,05,12,00,59,941.08
2021,05,12,01,00,941.08
2021,05,12,01,01,939.35
2021,05,12,01,02,939.92
2021,05,12,01,03,939.66
2021,05,12,01,04,939.59
2021,05,12,01,05,938.17
2021,05,12,01,06,938.10
2021,05,12,01,07,936.81
2021,05,12,01,08,936.81
2021,05,12,01,09,936.81
2021,05,12,01,10,936.81
2021,05,12,01,11,936.81
2021,05,12,01,12,936.81
2021,05,12,01,13,936.26
2021,05,12,01,14,931.31
2021,05,12,01,15,931.24
2021,05,12,01,16,931.72
2021,05,12,01,17,932.11
2021,05,12,01,18,932.24
2021,05,12,01,19,932.29
2021,05,12,01,20,933.19
2021,05,12,01,21,933.16
2021,05,12,01,22,933.59
2021,05,12,01,23,934.16
2021,05,12,01,24,934.59
2021,05,12,01,25,934.65
2021,05,12,01,26,934.72
2021,05,12,01,27,934.32
2021,05,12,01,28,933.86
2021,05,12,01,29,933.86
2021,05,12,01,30,933.86
2021,05,12,01,31,933.50
2021,05,12,01,32,930.04
2021,05,12,01,33,929.69
2021,05,12,01,34,929.36
2021,05,12,01,35,928.71
2021,05,12,01,36,928.38
2021,05,12,01,37,928.38
2021,05,12,01,38,928.23
2021,05,12,01,39,926.85
2021,05,12,01,40,926.72
2021,05,12,01,41,925.86
2021,05,12,01,42,925.37
2021,05,12,01,43,925.08
2021,05,12,01,44,925.33
2021,05,12,01,45,925.21
2021,05,12,01,46,924.02
2021,05,12,01,47,923.38
2021,05,12,01,48,923.07
2021,05,12,01,49,923.14
2021,05,12,01,50,923.30
2021,05,12,01,51,923.05
2021,05,12,01,52,922.12
2021,05,12,01,53,922.55
2021,05,12,01,54,922.55
2021,05,12,01,55,922.55
2021,05,12,01,56,922.55
2021,05,12,01,57,922.55
2021,05,12,01,58,922.22
2021,05,12,01,59,920.92
2021,05,12,02,00,921.30
2021,05,12,02,01,921.04
2021,05,12,02,02,919.83
2021,05,12,02,03,919.30
2021,05,12,02,04,919.30
2021,05,12,02,05,919.30
2021,05,12,02,06,919.30
2021,05,12,02,07,919.30
2021,05,12,02,08,916.98
2021,05,12,02,09,907.69
2021,05,12,02,10,907.69
2021,05,12,02,11,907.69
2021,05,12,02,12,907.69
2021,05,12,02,13,907.69
2021,05,12,02,14,907.69
2021,05,12,02,15,907.69
2021,05,12,02,16,907.69
2021,05,12,02,17,907.69
2021,05,12,02,18,907.69
2021,05,12,02,19,907.69
2021,05,12,02,20,907.69
2021,05,12,02,21,907.69
2021,05,12,02,22,907.69
2021,05,12,02,23,907.69
2021,05,12,02,24,933.40
2021,05,12,02,25,1010.51
2021,05,12,02,26,1010.46
2021,05,12,02,27,1010.45
2021,05,12,02,28,1010.42
2021,05,12,02,29,1010.39
2021,05,12,02,30,1010.35
2021,05,12,02,31,1010.35
2021,05,12,02,32,1010.38
2021,05,12,02,33,1010.31
2021,05,12,02,34,1010.30
2021,05,12,02,35,1010.21
2021,05,12,02,36,1010.14
2021,05,12,02,37,1010.15
2021,05,12,02,38,1010.14
2021,05,12,02,39,1010.14
2021,05,12,02,40,1010.07
2021,05,12,02,41,1010.01
2021,05,12,02,42,1009.99
2021,05,12,02,43,1010.01
2021,05,12,02,44,1010.03
2021,05,12,02,45,1009.95
2021,05,12,02,46,1009.90
2021,05,12,02,47,1009.80
2021,05,12,02,48,1009.74
2021,05,12,02,49,1009.70
2021,05,12,02,50,1009.65
2021,05,12,02,51,1009.63
2021,05,12,02,52,1009.55
2021,05,12,02,53,1009.47
2021,05,12,02,54,1009.44
2021,05,12,02,55,1009.40
2021,05,12,02,56,1009.31
2021,05,12,02,57,1009.21
2021,05,12,02,58,1009.18
2021,05,12,02,59,1009.08
2021,05,12,03,00,1008.98
2021,05,12,03,01,1008.92
2021,05,12,03,02,1008.86
2021,05,12,03,03,1008.82
2021,05,12,03,04,1008.75
2021,05,12,03,05,1008.68
2021,05,12,03,06,1008.61
2021,05,12,03,07,1008.58
2021,05,12,03,08,1008.59
2021,05,12,03,09,1008.56
2021,05,12,03,10,1008.50
2021,05,12,03,11,1008.43
2021,05,12,03,12,1008.42
2021,05,12,03,13,1008.39
2021,05,12,03,14,1008.37
2021,05,12,03,15,1008.36
2021,05,12,03,16,1008.32
2021,05,12,03,17,1008.30
2021,05,12,03,18,1008.30
2021,05,12,03,19,1008.28
2021,05,12,03,20,1008.22
2021,05,12,03,21,1008.20
2021,05,12,03,22,1008.19
2021,05,12,03,23,1008.15
2021,05,12,03,24,1008.13
2021,05,12,03,25,1008.11
2021,05,12,03,26,1008.08
2021,05,12,03,27,1008.07
2021,05,12,03,28,1008.09
2021,05,12,03,29,1008.08
2021,05,12,03,30,1008.08
2021,05,12,03,31,1008.13
2021,05,12,03,32,1008.13
2021,05,12,03,33,1008.13
2021,05,12,03,34,1008.14
2021,05,12,03,35,1008.16
2021,05,12,03,36,1008.15
2021,05,12,03,37,1008.13
2021,05,12,03,38,1008.13
2021,05,12,03,39,1008.13
2021,05,12,03,40,1008.11
2021,05,12,03,41,1008.09
2021,05,12,03,42,1008.12
2021,05,12,03,43,1008.15
2021,05,12,03,44,1008.11
2021,05,12,03,45,1008.11
2021,05,12,03,46,1008.14
2021,05,12,03,47,1008.13
2021,05,12,03,48,1008.11
2021,05,12,03,49,1008.11
2021,05,12,03,50,1008.09
2021,05,12,03,51,1008.11
2021,05,12,03,52,1008.11
2021,05,12,03,53,1008.09
2021,05,12,03,54,1008.09
2021,05,12,03,55,1008.09
2021,05,12,03,56,1008.08
2021,05,12,03,57,1008.06
2021,05,12,03,58,1008.04
2021,05,12,03,59,1008.03
2021,05,12,04,00,1008.01
2021,05,12,04,01,1007.98
2021,05,12,04,02,1007.96
2021,05,12,04,03,1007.96
2021,05,12,04,04,1007.97
2021,05,12,04,08,1007.99
2021,05,12,04,09,1007.96
2021,05,12,04,10,1007.96
2021,05,12,04,11,1007.96
2021,05,12,04,12,1007.96
2021,05,12,04,13,1007.99
2021,05,12,04,14,1007.99
2021,05,12,04,15,1007.99
2021,05,12,04,16,1007.99
2021,05,12,04,17,1007.99
2021,05,12,04,18,1007.99
2021,05,12,04,19,1007.96
2021,05,12,04,20,1007.93
2021,05,12,04,21,1007.93
2021,05,12,04,22,1007.93
2021,05,12,04,23,1007.93
2021,05,12,04,24,1007.86
2021,05,12,04,25,1007.89
2021,05,12,04,26,1007.86
2021,05,12,04,27,1007.86
2021,05,12,04,28,1007.82
2021,05,12,04,29,1007.82
2021,05,12,04,30,1007.79
2021,05,12,04,31,1007.82
2021,05,12,04,32,1007.76
2021,05,12,04,33,1007.76
2021,05,12,04,34,1007.72
2021,05,12,04,35,1007.69
2021,05,12,04,36,1007.69
2021,05,12,04,37,1007.72
2021,05,12,04,38,1007.62
2021,05,12,04,39,1007.69
2021,05,12,04,40,1007.68
2021,05,12,04,41,1007.55
2021,05,12,04,42,1007.35
2021,05,12,04,43,1007.35
2021,05,12,04,44,1007.27
2021,05,12,04,45,1007.10
2021,05,12,04,46,1006.94
2021,05,12,04,47,1006.94
2021,05,12,04,48,1006.88
2021,05,12,04,49,1006.80
2021,05,12,04,50,1006.74
2021,05,12,04,51,1006.77
2021,05,12,04,52,1006.71
2021,05,12,04,53,1006.66
2021,05,12,04,54,1006.57
2021,05,12,04,55,1006.54
2021,05,12,04,56,1006.54
2021,05,12,04,57,1006.50
2021,05,12,04,58,1006.49
2021,05,12,04,59,1006.44
2021,05,12,05,00,1006.37
2021,05,12,05,01,1006.36
2021,05,12,05,02,1006.21
2021,05,12,05,03,1006.05
2021,05,12,05,04,1005.93
2021,05,12,05,05,1005.92
2021,05,12,05,06,1005.86
2021,05,12,05,07,1005.83
2021,05,12,05,08,1005.78
2021,05,12,05,09,1005.72
2021,05,12,05,10,1005.68
2021,05,12,05,11,1005.54
2021,05,12,05,12,1005.45
2021,05,12,05,13,1005.42
2021,05,12,05,14,1005.38
2021,05,12,05,15,1005.27
2021,05,12,05,16,1005.21
2021,05,12,05,17,1005.14
2021,05,12,05,18,1005.00
2021,05,12,05,19,1004.88
2021,05,12,05,20,1004.83
2021,05,12,05,21,1004.73
2021,05,12,05,22,1004.66
2021,05,12,05,23,1004.60
2021,05,12,05,24,1004.56
2021,05,12,05,25,1004.48
2021,05,12,05,26,1004.37
2021,05,12,05,27,1004.38
2021,05,12,05,28,1004.23
2021,05,12,05,29,1004.21
2021,05,12,05,30,1004.11
2021,05,12,05,31,1003.98
2021,05,12,05,32,1003.89
2021,05,12,05,33,1003.83
2021,05,12,05,34,1003.72
2021,05,12,05,35,1003.69
2021,05,12,05,36,1003.65
2021,05,12,05,37,1003.58
2021,05,12,05,38,1003.52
2021,05,12,05,39,1003.50
2021,05,12,05,40,1003.41
2021,05,12,05,41,1003.36
2021,05,12,05,42,1003.22
2021,05,12,05,43,1003.24
2021,05,12,05,44,1003.23
2021,05,12,05,45,1003.23
2021,05,12,05,46,1003.14
2021,05,12,05,47,1003.11
2021,05,12,05,48,1003.03
2021,05,12,05,49,1002.99
2021,05,12,05,50,1003.00
2021,05,12,05,51,1002.93
2021,05,12,05,52,1002.90
2021,05,12,05,53,1002.95
2021,05,12,05,54,1002.95
2021,05,12,05,55,1002.94
2021,05,12,05,56,1002.88
2021,05,12,05,57,1002.86
2021,05,12,05,58,1002.79
2021,05,12,05,59,1002.80
2021,05,12,06,00,1002.79
2021,05,12,06,01,1002.79
2021,05,12,06,02,1002.74
2021,05,12,06,03,1002.72
2021,05,12,06,04,1002.63
2021,05,12,06,05,1002.61
2021,05,12,06,06,1002.60
2021,05,12,06,07,1002.53
2021,05,12,06,08,1002.43
2021,05,12,06,09,1002.40
2021,05,12,06,10,1002.38
2021,05,12,06,11,1002.39
2021,05,12,06,12,1002.33
2021,05,12,06,13,1002.28
2021,05,12,06,14,1002.25
2021,05,12,06,15,1002.26
2021,05,12,06,16,1002.21
2021,05,12,06,17,1002.13
2021,05,12,06,18,1002.11
2021,05,12,06,19,1002.06
2021,05,12,06,20,1002.01
2021,05,12,06,21,1001.98
2021,05,12,06,22,1001.97
2021,05,12,06,23,1001.89
2021,05,12,06,24,1001.85
2021,05,12,06,25,1001.81
2021,05,12,06,26,1001.77
2021,05,12,06,27,1001.82
2021,05,12,06,28,1001.84
2021,05,12,06,29,1001.80
2021,05,12,06,30,1001.79
2021,05,12,06,31,1001.76
2021,05,12,06,32,1001.75
2021,05,12,06,33,1001.73
2021,05,12,06,34,1001.72
2021,05,12,06,35,1001.68
2021,05,12,06,36,1001.67
2021,05,12,06,37,1001.66
2021,05,12,06,38,1001.61
2021,05,12,06,39,1001.65
2021,05,12,06,40,1001.62
2021,05,12,06,41,1001.58
2021,05,12,06,42,1001.56
2021,05,12,06,43,1001.56
2021,05,12,06,44,1001.56
2021,05,12,06,45,1001.55
2021,05,12,06,46,1001.51
2021,05,12,06,47,1001.49
2021,05,12,06,48,1001.48
2021,05,12,06,49,1001.44
2021,05,12,06,50,1001.45
2021,05,12,06,51,1001.48
2021,05,12,06,52,1001.44
2021,05,12,06,53,1001.39
2021,05,12,06,54,1001.38
2021,05,12,06,55,1001.37
2021,05,12,06,56,1001.39
2021,05,12,06,57,1001.42
2021,05,12,06,58,1001.45
2021,05,12,06,59,1001.39
2021,05,12,07,00,1001.31
2021,05,12,07,01,1001.29
2021,05,12,07,02,1001.30
2021,05,12,07,03,1001.28
2021,05,12,07,04,1001.21
2021,05,12,07,05,1001.19
2021,05,12,07,06,1001.20
2021,05,12,07,07,1001.23
2021,05,12,07,08,1001.21
2021,05,12,07,09,1001.17
2021,05,12,07,10,1001.17
2021,05,12,07,11,1001.12
2021,05,12,07,12,1001.07
2021,05,12,07,13,1001.05
2021,05,12,07,14,1001.05
2021,05,12,07,15,1001.06
2021,05,12,07,16,1001.07
2021,05,12,07,17,1001.04
2021,05,12,07,18,1001.00
2021,05,12,07,19,1000.98
2021,05,12,07,20,1000.93
2021,05,12,07,21,1000.87
2021,05,12,07,22,1000.86
2021,05,12,07,23,1000.88
2021,05,12,07,24,1000.82
2021,05,12,07,25,1000.76
2021,05,12,07,26,1000.75
2021,05,12,07,27,1000.73
2021,05,12,07,28,1000.73
2021,05,12,07,29,1000.71
2021,05,12,07,30,1000.71
2021,05,12,07,31,1000.71
2021,05,12,07,32,1000.68
2021,05,12,07,33,1000.66
2021,05,12,07,34,1000.68
2021,05,12,07,35,1000.68
2021,05,12,07,36,1000.68
2021,05,12,07,37,1000.73
2021,05,12,07,38,1000.75
2021,05,12,07,39,1000.67
2021,05,12,07,40,1000.64
2021,05,12,07,41,1000.64
2021,05,12,07,42,1000.61
2021,05,12,07,43,1000.56
2021,05,12,07,44,1000.56
2021,05,12,07,45,1000.58
2021,05,12,07,46,1000.61
2021,05,12,07,47,1000.61
2021,05,12,07,48,1000.55
2021,05,12,07,49,1000.54
2021,05,12,07,50,1000.54
2021,05,12,07,51,1000.49
2021,05,12,07,52,1000.51
2021,05,12,07,53,1000.56
2021,05,12,07,54,1000.58
2021,05,12,07,55,1000.56
2021,05,12,07,56,1000.54
2021,05,12,07,57,1000.54
2021,05,12,07,58,1000.56
2021,05,12,07,59,1000.56
2021,05,12,08,00,1000.54
2021,05,12,08,01,1000.52
2021,05,12,08,02,1000.53
2021,05,12,08,03,1000.54
2021,05,12,08,04,1000.54
2021,05,12,08,05,1000.54
2021,05,12,08,06,1000.56
2021,05,12,08,07,1000.54
2021,05,12,08,08,1000.51
2021,05,12,08,09,1000.51
2021,05,12,08,10,1000.51
2021,05,12,08,11,1000.49
2021,05,12,08,12,1000.48
2021,05,12,08,13,1000.44
2021,05,12,08,14,1000.39
2021,05,12,08,15,1000.34
2021,05,12,08,16,1000.31
2021,05,12,08,17,1000.29
2021,05,12,08,18,1000.25
2021,05,12,08,19,1000.26
2021,05,12,08,20,1000.25
2021,05,12,08,21,1000.24
2021,05,12,08,22,1000.24
2021,05,12,08,23,1000.22
2021,05,12,08,24,1000.20
2021,05,12,08,25,1000.11
2021,05,12,08,26,1000.05
2021,05,12,08,27,1000.05
2021,05,12,08,28,1000.01
2021,05,12,08,29,999.98
2021,05,12,08,30,999.99
2021,05,12,08,31,1000.00
2021,05,12,08,32,999.96
2021,05,12,08,33,999.93
2021,05,12,08,34,999.95
2021,05,12,08,35,999.95
2021,05,12,08,36,999.91
2021,05,12,08,37,999.88
2021,05,12,08,38,999.83
2021,05,12,08,39,999.72
2021,05,12,08,40,999.68
2021,05,12,08,41,999.67
2021,05,12,08,42,999.61
2021,05,12,08,43,999.57
2021,05,12,08,44,999.52
2021,05,12,08,45,999.49
2021,05,12,08,46,999.55
2021,05,12,08,47,999.57
2021,05,12,08,48,999.60
2021,05,12,08,49,999.59
2021,05,12,08,50,999.56
2021,05,12,08,51,999.58
2021,05,12,08,52,999.57
2021,05,12,08,53,999.56
2021,05,12,08,54,999.54
2021,05,12,08,55,999.57
2021,05,12,08,56,999.57
2021,05,12,08,57,999.52
2021,05,12,08,58,999.49
2021,05,12,08,59,999.52
2021,05,12,09,00,999.53
2021,05,12,09,01,999.48
2021,05,12,09,02,999.51
2021,05,12,09,03,999.43
2021,05,12,09,04,999.39
2021,05,12,09,05,999.39
2021,05,12,09,06,999.37
2021,05,12,09,07,999.36
2021,05,12,09,08,999.36
2021,05,12,09,09,999.33
2021,05,12,09,10,999.32
2021,05,12,09,11,999.30
2021,05,12,09,12,999.27
2021,05,12,09,13,999.23
2021,05,12,09,14,999.20
2021,05,12,09,15,999.12
2021,05,12,09,16,999.09
2021,05,12,09,17,999.06
2021,05,12,09,18,999.01
2021,05,12,09,19,999.01
2021,05,12,09,20,999.00
2021,05,12,09,21,998.91
2021,05,12,09,22,998.86
2021,05,12,09,23,998.87
2021,05,12,09,24,998.88
2021,05,12,09,25,998.86
2021,05,12,09,26,998.85
2021,05,12,09,27,998.80
2021,05,12,09,28,998.78
2021,05,12,09,29,998.78
2021,05,12,09,30,998.81
2021,05,12,09,31,998.79
2021,05,12,09,32,998.73
2021,05,12,09,33,998.66
2021,05,12,09,34,998.65
2021,05,12,09,35,998.67
2021,05,12,09,36,998.66
2021,05,12,09,37,998.65
2021,05,12,09,38,998.57
2021,05,12,09,39,998.57
2021,05,12,09,40,998.58
2021,05,12,09,41,998.58
2021,05,12,09,42,998.58
2021,05,12,09,43,998.58
2021,05,12,09,44,998.55
2021,05,12,09,45,998.59
2021,05,12,09,46,998.51
2021,05,12,09,47,998.42
2021,05,12,09,48,998.39
2021,05,12,09,49,998.35
2021,05,12,09,50,998.24
2021,05,12,09,51,998.21
2021,05,12,09,52,998.23
2021,05,12,09,53,998.24
2021,05,12,09,54,998.24
2021,05,12,09,55,998.22
2021,05,12,09,56,998.21
2021,05,12,09,57,998.18
2021,05,12,09,58,998.20
2021,05,12,09,59,998.23
2021,05,12,10,00,998.24
2021,05,12,10,01,998.16
2021,05,12,10,02,998.08
2021,05,12,10,03,998.07
2021,05,12,10,04,998.09
2021,05,12,10,05,998.05
2021,05,12,10,06,997.98
2021,05,12,10,07,997.95
2021,05,12,10,08,997.97
2021,05,12,10,09,997.95
2021,05,12,10,10,997.94
2021,05,12,10,11,997.96
2021,05,12,10,12,998.00
2021,05,12,10,13,997.97
2021,05,12,10,14,997.95
2021,05,12,10,15,997.88
2021,05,12,10,16,997.84
2021,05,12,10,17,997.81
2021,05,12,10,18,997.78
2021,05,12,10,19,997.77
2021,05,12,10,20,997.71
2021,05,12,10,21,997.73
2021,05,12,10,22,997.64
2021,05,12,10,23,997.71
2021,05,12,10,24,997.62
2021,05,12,10,25,997.63
2021,05,12,10,26,997.63
2021,05,12,10,27,997.69
2021,05,12,10,28,997.61
2021,05,12,10,29,997.60
2021,05,12,10,30,997.60
2021,05,12,10,31,997.63
2021,05,12,10,32,997.63
2021,05,12,10,33,997.63
2021,05,12,10,34,997.63
2021,05,12,10,35,997.69
2021,05,12,10,36,997.70
2021,05,12,10,37,997.64
2021,05,12,10,38,997.69
2021,05,12,10,39,997.66
2021,05,12,10,40,997.63
2021,05,12,10,41,997.60
2021,05,12,10,42,997.60
2021,05,12,10,43,997.60
2021,05,12,10,44,997.63
2021,05,12,10,45,997.60
2021,05,12,10,46,997.47
2021,05,12,10,47,997.40
2021,05,12,10,48,997.49
2021,05,12,10,49,997.46
2021,05,12,10,50,997.43
2021,05,12,10,51,997.43
2021,05,12,10,52,997.43
2021,05,12,10,53,997.39
2021,05,12,10,54,997.43
2021,05,12,10,55,997.39
2021,05,12,10,56,997.46
2021,05,12,10,57,997.46
2021,05,12,10,58,997.46
2021,05,12,10,59,997.36
2021,05,12,11,00,997.33
2021,05,12,11,01,997.33
2021,05,12,11,02,997.29
2021,05,12,11,03,997.29
2021,05,12,11,04,997.26
2021,05,12,11,05,997.29
2021,05,12,11,06,997.26
2021,05,12,11,07,997.26
2021,05,12,11,08,997.29
2021,05,12,11,09,997.22
2021,05,12,11,10,997.26
2021,05,12,11,11,997.19
2021,05,12,11,12,997.26
2021,05,12,11,13,997.22
2021,05,12,11,14,997.19
2021,05,12,11,15,997.12
2021,05,12,11,16,997.12
2021,05,12,11,17,997.09
2021,05,12,11,18,997.02
2021,05,12,11,19,996.99
2021,05,12,11,20,996.99
2021,05,12,11,21,996.99
2021,05,12,11,22,996.95
2021,05,12,11,23,996.95
2021,05,12,11,24,996.92
2021,05,12,11,25,996.92
2021,05,12,11,26,996.92
2021,05,12,11,27,996.92
2021,05,12,11,28,996.89
2021,05,12,11,29,996.85
2021,05,12,11,30,996.78
2021,05,12,11,31,996.85
2021,05,12,11,32,996.82
2021,05,12,11,33,996.78
2021,05,12,11,34,996.68
2021,05,12,11,35,996.68
2021,05,12,11,36,996.65
2021,05,12,11,37,996.58
2021,05,12,11,38,996.55
2021,05,12,11,39,996.61
2021,05,12,11,40,996.55
2021,05,12,11,41,996.58
2021,05,12,11,42,996.60
2021,05,12,11,43,996.55
2021,05,12,11,44,996.51
2021,05,12,11,45,996.48
2021,05,12,11,46,996.48
2021,05,12,11,47,996.51
2021,05,12,11,48,996.48
2021,05,12,11,49,996.46
2021,05,12,11,50,996.52
2021,05,12,11,51,996.58
2021,05,12,11,52,996.55
2021,05,12,11,53,996.55
2021,05,12,11,54,996.55
2021,05,12,11,55,996.59
2021,05,12,11,56,996.64
2021,05,12,11,57,996.57
2021,05,12,11,58,996.50
2021,05,12,11,59,996.46
2021,05,12,12,00,996.49
2021,05,12,12,01,996.35
2021,05,12,12,02,996.44
2021,05,12,12,03,996.37
2021,05,12,12,04,996.28
2021,05,12,12,05,996.31
2021,05,12,12,06,996.31
2021,05,12,12,07,996.31
2021,05,12,12,08,996.32
2021,05,12,12,09,996.37
2021,05,12,12,10,996.34
2021,05,12,12,11,996.38
2021,05,12,12,12,996.41
2021,05,12,12,13,996.38
2021,05,12,12,14,996.41
2021,05,12,12,15,996.38
2021,05,12,12,16,996.39
2021,05,12,12,17,996.41
2021,05,12,12,18,996.41
2021,05,12,12,19,996.38
2021,05,12,12,20,996.37
2021,05,12,12,21,996.31
2021,05,12,12,22,996.31
2021,05,12,12,23,996.34
2021,05,12,12,24,996.30
2021,05,12,12,25,996.28
2021,05,12,12,26,996.31
2021,05,12,12,27,996.30
2021,05,12,12,28,996.24
2021,05,12,12,29,996.23
2021,05,12,12,30,996.20
2021,05,12,12,31,996.16
2021,05,12,12,32,996.14
2021,05,12,12,33,996.13
2021,05,12,12,34,996.11
2021,05,12,12,35,996.14
2021,05,12,12,36,996.11
2021,05,12,12,37,996.11
2021,05,12,12,38,996.14
2021,05,12,12,39,996.13
2021,05,12,12,40,996.11
2021,05,12,12,41,996.10
2021,05,12,12,42,996.05
2021,05,12,12,43,996.07
2021,05,12,12,44,996.08
2021,05,12,12,45,996.11
2021,05,12,12,46,996.11
2021,05,12,12,47,996.12
2021,05,12,12,48,996.13
2021,05,12,12,49,996.11
2021,05,12,12,50,996.10
2021,05,12,12,51,996.09
2021,05,12,12,52,996.13
2021,05,12,12,53,996.12
2021,05,12,12,54,996.12
2021,05,12,12,55,996.05
2021,05,12,12,56,996.06
2021,05,12,12,57,996.02
2021,05,12,12,58,995.96
2021,05,12,12,59,995.93
2021,05,12,13,00,995.92
2021,05,12,13,01,995.97
2021,05,12,13,02,995.93
2021,05,12,13,03,995.85
2021,05,12,13,04,995.87
2021,05,12,13,05,995.85
2021,05,12,13,06,995.81
2021,05,12,13,07,995.83
2021,05,12,13,08,995.79
2021,05,12,13,09,995.79
2021,05,12,13,10,995.82
2021,05,12,13,11,995.74
2021,05,12,13,12,995.63
2021,05,12,13,13,995.55
2021,05,12,13,14,995.60
2021,05,12,13,15,995.59
2021,05,12,13,16,995.59
2021,05,12,13,17,995.66
2021,05,12,13,18,995.62
2021,05,12,13,19,995.61
2021,05,12,13,20,995.63
2021,05,12,13,21,995.64
2021,05,12,13,22,995.65
2021,05,12,13,23,995.59
2021,05,12,13,24,995.55
2021,05,12,13,25,995.54
2021,05,12,13,26,995.57
2021,05,12,13,27,995.59
2021,05,12,13,28,995.56
2021,05,12,13,29,995.55
2021,05,12,13,30,995.52
2021,05,12,13,31,995.50
2021,05,12,13,32,995.49
2021,05,12,13,33,995.45
2021,05,12,13,34,995.44
2021,05,12,13,35,995.45
2021,05,12,13,36,995.44
2021,05,12,13,37,995.45
2021,05,12,13,38,995.42
2021,05,12,13,39,995.40
2021,05,12,13,40,995.40
2021,05,12,13,41,995.40
2021,05,12,13,42,995.39
2021,05,12,13,43,995.34
2021,05,12,13,44,995.29
2021,05,12,13,45,995.27
2021,05,12,13,46,995.24
2021,05,12,13,47,995.25
2021,05,12,13,48,995.25
2021,05,12,13,49,995.25
2021,05,12,13,50,995.21
2021,05,12,13,51,995.24
2021,05,12,13,52,995.23
2021,05,12,13,53,995.16
2021,05,12,13,54,995.14
2021,05,12,13,55,995.15
2021,05,12,13,56,995.12
2021,05,12,13,57,995.14
2021,05,12,13,58,995.15
2021,05,12,13,59,995.12
2021,05,12,14,00,995.12
2021,05,12,14,01,995.10
2021,05,12,14,02,995.06
2021,05,12,14,03,995.07
2021,05,12,14,04,995.05
2021,05,12,14,05,994.99
2021,05,12,14,06,995.00
2021,05,12,14,07,995.04
2021,05,12,14,08,995.06
2021,05,12,14,09,995.03
2021,05,12,14,10,994.96
2021,05,12,14,11,994.91
2021,05,12,14,12,994.89
2021,05,12,14,13,994.85
2021,05,12,14,14,994.82
2021,05,12,14,15,994.90
2021,05,12,14,16,994.91
2021,05,12,14,17,994.90
2021,05,12,14,18,994.94
2021,05,12,14,19,994.89
2021,05,12,14,20,994.85
2021,05,12,14,21,994.85
2021,05,12,14,22,994.85
2021,05,12,14,23,994.85
2021,05,12,14,24,994.84
2021,05,12,14,25,994.83
2021,05,12,14,26,994.84
2021,05,12,14,27,994.83
2021,05,12,14,28,994.84
2021,05,12,14,29,994.81
2021,05,12,14,30,994.80
2021,05,12,14,31,994.82
2021,05,12,14,32,994.81
2021,05,12,14,33,994.79
2021,05,12,14,34,994.76
2021,05,12,14,35,994.68
2021,05,12,14,36,994.66
2021,05,12,14,37,994.68
2021,05,12,14,38,994.65
2021,05,12,14,39,994.64
2021,05,12,14,40,994.66
2021,05,12,14,41,994.68
2021,05,12,14,42,994.67
2021,05,12,14,43,994.66
2021,05,12,14,44,994.65
2021,05,12,14,45,994.62
2021,05,12,14,46,994.60
2021,05,12,14,47,994.56
2021,05,12,14,48,994.55
2021,05,12,14,49,994.57
2021,05,12,14,50,994.55
2021,05,12,14,51,994.52
2021,05,12,14,52,994.47
2021,05,12,14,53,994.39
2021,05,12,14,54,994.36
2021,05,12,14,55,994.31
2021,05,12,14,56,994.30
2021,05,12,14,57,994.31
2021,05,12,14,58,994.29
2021,05,12,14,59,994.28
2021,05,12,15,00,994.26
2021,05,12,15,01,994.24
2021,05,12,15,02,994.22
2021,05,12,15,03,994.19
2021,05,12,15,04,994.16
2021,05,12,15,05,994.10
2021,05,12,15,06,994.04
2021,05,12,15,07,993.99
2021,05,12,15,08,993.92
2021,05,12,15,09,993.85
2021,05,12,15,10,993.82
2021,05,12,15,11,993.76
2021,05,12,15,12,993.74
2021,05,12,15,13,993.70
2021,05,12,15,14,993.69
2021,05,12,15,15,993.68
2021,05,12,15,16,993.65
2021,05,12,15,17,993.60
2021,05,12,15,18,993.54
2021,05,12,15,19,993.55
2021,05,12,15,20,993.47
2021,05,12,15,21,993.42
2021,05,12,15,22,993.45
2021,05,12,15,23,993.41
2021,05,12,15,24,993.30
2021,05,12,15,25,993.18
2021,05,12,15,26,993.07
2021,05,12,15,27,993.01
2021,05,12,15,28,992.97
2021,05,12,15,29,992.92
2021,05,12,15,30,992.85
2021,05,12,15,31,992.82
2021,05,12,15,32,992.85
2021,05,12,15,33,992.79
2021,05,12,15,34,992.69
2021,05,12,15,35,992.57
2021,05,12,15,36,992.47
2021,05,12,15,37,992.47
2021,05,12,15,38,992.46
2021,05,12,15,39,992.39
2021,05,12,15,40,992.39
2021,05,12,15,41,992.40
2021,05,12,15,42,992.41
2021,05,12,15,43,992.35
2021,05,12,15,44,992.29
2021,05,12,15,45,992.21
2021,05,12,15,46,992.11
2021,05,12,15,47,992.05
2021,05,12,15,48,991.96
2021,05,12,15,49,991.86
2021,05,12,15,50,991.74
2021,05,12,15,51,991.60
2021,05,12,15,52,991.54
2021,05,12,15,53,991.49
2021,05,12,15,54,991.38
2021,05,12,15,55,991.31
2021,05,12,15,56,991.18
2021,05,12,15,57,991.01
2021,05,12,15,58,990.89
2021,05,12,15,59,990.75
2021,05,12,16,00,990.58
2021,05,12,16,01,990.45
2021,05,12,16,02,990.27
2021,05,12,16,03,990.12
2021,05,12,16,04,989.91
2021,05,12,16,05,989.82
2021,05,12,16,06,989.53
2021,05,12,16,07,989.34
2021,05,12,16,08,989.23
2021,05,12,16,09,989.03
2021,05,12,16,10,988.77
2021,05,12,16,11,988.42
2021,05,12,16,12,987.97
2021,05,12,16,13,987.46
2021,05,12,16,14,986.94
2021,05,12,16,15,986.79
2021,05,12,16,16,986.79
2021,05,12,16,17,986.79
2021,05,12,16,18,984.62
2021,05,12,16,19,983.32
2021,05,12,16,20,982.67
2021,05,12,16,21,982.10
2021,05,12,16,22,981.92
2021,05,12,16,23,981.92
2021,05,12,16,24,981.92